• en Suisse
  • Liste des pays
  • À 7 jours
  • Température de l'eau
  • Carte satellitaire
  • Carte météo
  • Widgets météo
  • user-avatar
    Se connecter

    Météo par heure à Ocotal

    Ce jour, 21 Octobre, Dimanche

    Heure Température Précipitation Vent Pression Humidité
    00:00 +22°C° 0 mm 1 m/s 707 mmHg 95%
    01:00 +22°C° 0 mm 1 m/s 707 mmHg 95%
    02:00 +22°C° 0 mm 1 m/s 707 mmHg 95%
    03:00 +22°C° 0 mm 1 m/s 707 mmHg 95%
    04:00 +22°C° 0 mm 1 m/s 707 mmHg 95%
    05:00 +22°C° 0 mm 1 m/s 707 mmHg 95%
    06:00 +22°C° 0 mm 1 m/s 707 mmHg 95%
    07:00 +23°C° 0 mm 2 m/s 708 mmHg 88%
    08:00 +25°C° 0 mm 2 m/s 708 mmHg 82%
    09:00 +26°C° 0 mm 2 m/s 709 mmHg 75%
    10:00 +27°C° 0 mm 2 m/s 708 mmHg 69%
    11:00 +28°C° 0 mm 3 m/s 708 mmHg 63%
    12:00 +30°C° 0 mm 3 m/s 708 mmHg 57%
    13:00 +30°C° 0 mm 3 m/s 707 mmHg 57%
    14:00 +30°C° 0 mm 3 m/s 706 mmHg 57%
    15:00 +30°C° 0 mm 3 m/s 706 mmHg 57%
    16:00 +28°C° 0 mm 2 m/s 706 mmHg 64%
    17:00 +26°C° 0 mm 2 m/s 706 mmHg 71%
    18:00 +24°C° 0 mm 1 m/s 706 mmHg 79%
    19:00 +23°C° 0 mm 1 m/s 707 mmHg 82%
    20:00 +23°C° 0 mm 1 m/s 707 mmHg 85%
    21:00 +22°C° 0 mm 1 m/s 708 mmHg 87%
    22:00 +22°C° 0 mm 1 m/s 708 mmHg 90%
    23:00 +22°C° 0 mm 1 m/s 708 mmHg 92%

    Demain, 22 Octobre, Lundi

    Heure Température Précipitation Vent Pression Humidité
    00:00 +21°C° 0 mm 1 m/s 708 mmHg 94%
    01:00 +21°C° 0 mm 1 m/s 707 mmHg 94%
    02:00 +21°C° 0 mm 1 m/s 707 mmHg 95%
    03:00 +21°C° 0 mm 1 m/s 707 mmHg 95%
    04:00 +21°C° 0 mm 1 m/s 707 mmHg 95%
    05:00 +20°C° 0 mm 1 m/s 707 mmHg 95%
    06:00 +20°C° 0 mm 1 m/s 707 mmHg 95%
    07:00 +21°C° 0 mm 2 m/s 708 mmHg 87%
    08:00 +24°C° 0 mm 2 m/s 709 mmHg 80%
    09:00 +26°C° 0 mm 3 m/s 709 mmHg 72%
    10:00 +27°C° 0 mm 3 m/s 709 mmHg 66%
    11:00 +28°C° 0 mm 3 m/s 709 mmHg 59%
    12:00 +30°C° 0 mm 3 m/s 708 mmHg 52%
    13:00 +30°C° 0 mm 3 m/s 707 mmHg 53%
    14:00 +30°C° 0 mm 3 m/s 707 mmHg 54%
    15:00 +30°C° 0 mm 2 m/s 706 mmHg 55%
    16:00 +28°C° 0 mm 2 m/s 706 mmHg 62%
    17:00 +26°C° 0 mm 2 m/s 707 mmHg 68%
    18:00 +24°C° 0 mm 1 m/s 707 mmHg 75%
    19:00 +24°C° 0 mm 1 m/s 707 mmHg 78%
    20:00 +23°C° 0 mm 1 m/s 708 mmHg 80%
    21:00 +23°C° 0 mm 1 m/s 708 mmHg 83%
    22:00 +22°C° 0 mm 1 m/s 708 mmHg 85%
    23:00 +22°C° 0 mm 1 m/s 708 mmHg 88%

    Après-demain, 23 Octobre, Mardi

    Heure Température Précipitation Vent Pression Humidité
    00:00 +22°C° 0 mm 1 m/s 708 mmHg 90%
    01:00 +22°C° 0 mm 1 m/s 708 mmHg 91%
    02:00 +22°C° 0 mm 1 m/s 707 mmHg 92%
    03:00 +22°C° 0 mm 1 m/s 707 mmHg 94%
    04:00 +21°C° 0 mm 1 m/s 707 mmHg 94%
    05:00 +21°C° 0 mm 1 m/s 707 mmHg 95%
    06:00 +21°C° 0 mm 1 m/s 708 mmHg 95%
    07:00 +23°C° 0 mm 2 m/s 708 mmHg 88%
    08:00 +25°C° 0 mm 2 m/s 709 mmHg 80%
    09:00 +26°C° 0 mm 2 m/s 710 mmHg 72%
    10:00 +28°C° 0 mm 3 m/s 709 mmHg 67%
    11:00 +29°C° 0 mm 3 m/s 709 mmHg 62%
    12:00 +30°C° 0 mm 3 m/s 708 mmHg 57%
    13:00 +30°C° 0 mm 3 m/s 707 mmHg 57%
    14:00 +30°C° 0 mm 3 m/s 707 mmHg 58%
    15:00 +30°C° 0 mm 2 m/s 706 mmHg 59%
    16:00 +28°C° 0 mm 2 m/s 706 mmHg 67%
    17:00 +26°C° 0 mm 2 m/s 706 mmHg 74%
    18:00 +24°C° 0 mm 1 m/s 707 mmHg 82%
    19:00 +24°C° 0 mm 1 m/s 707 mmHg 85%
    20:00 +23°C° 0 mm 1 m/s 708 mmHg 88%
    21:00 +22°C° 0 mm 1 m/s 708 mmHg 91%
    22:00 +22°C° 0 mm 1 m/s 708 mmHg 92%
    23:00 +22°C° 0 mm 1 m/s 708 mmHg 93%

    24 Octobre, Mercredi

    Heure Température Précipitation Vent Pression Humidité
    00:00 +21°C° 0 mm 1 m/s 708 mmHg 94%
    01:00 +21°C° 0 mm 1 m/s 708 mmHg 94%
    02:00 +21°C° 0 mm 1 m/s 707 mmHg 94%
    03:00 +21°C° 0 mm 1 m/s 707 mmHg 94%
    04:00 +21°C° 0 mm 1 m/s 707 mmHg 94%
    05:00 +21°C° 0 mm 1 m/s 708 mmHg 94%
    06:00 +21°C° 0 mm 1 m/s 708 mmHg 95%
    07:00 +23°C° 0 mm 1 m/s 709 mmHg 86%
    08:00 +25°C° 0 mm 2 m/s 709 mmHg 78%
    09:00 +27°C° 0 mm 2 m/s 710 mmHg 69%
    10:00 +28°C° 0 mm 2 m/s 709 mmHg 63%
    11:00 +30°C° 0 mm 2 m/s 708 mmHg 56%
    12:00 +31°C° 0 mm 2 m/s 708 mmHg 50%
    13:00 +31°C° 0 mm 2 m/s 707 mmHg 50%
    14:00 +31°C° 0 mm 2 m/s 706 mmHg 51%
    15:00 +31°C° 0 mm 2 m/s 706 mmHg 51%
    16:00 +29°C° 0 mm 1 m/s 706 mmHg 59%
    17:00 +26°C° 0 mm 1 m/s 706 mmHg 66%
    18:00 +24°C° 0 mm 1 m/s 706 mmHg 74%
    19:00 +23°C° 0 mm 1 m/s 707 mmHg 76%
    20:00 +23°C° 0 mm 1 m/s 707 mmHg 78%
    21:00 +22°C° 0 mm 1 m/s 708 mmHg 80%
    22:00 +22°C° 0 mm 1 m/s 708 mmHg 82%
    23:00 +21°C° 0 mm 1 m/s 707 mmHg 84%

    25 Octobre, Jeudi

    Heure Température Précipitation Vent Pression Humidité
    00:00 +21°C° 0 mm 1 m/s 707 mmHg 86%
    01:00 +21°C° 0 mm 1 m/s 707 mmHg 88%
    02:00 +21°C° 0 mm 1 m/s 707 mmHg 90%
    03:00 +21°C° 0 mm 1 m/s 707 mmHg 92%
    04:00 +21°C° 0 mm 1 m/s 707 mmHg 93%
    05:00 +21°C° 0 mm 1 m/s 707 mmHg 94%
    06:00 +21°C° 0 mm 1 m/s 708 mmHg 95%
    07:00 +23°C° 0 mm 1 m/s 708 mmHg 85%
    08:00 +25°C° 0 mm 1 m/s 708 mmHg 76%
    09:00 +28°C° 0 mm 1 m/s 709 mmHg 67%
    10:00 +29°C° 0 mm 1 m/s 708 mmHg 61%
    11:00 +30°C° 0 mm 1 m/s 708 mmHg 54%
    12:00 +32°C° 0 mm 1 m/s 707 mmHg 48%
    13:00 +32°C° 0 mm 1 m/s 706 mmHg 48%
    14:00 +32°C° 0 mm 1 m/s 706 mmHg 49%
    15:00 +31°C° 0 mm 1 m/s 705 mmHg 49%
    16:00 +29°C° 0 mm 1 m/s 705 mmHg 58%
    17:00 +27°C° 0 mm 1 m/s 706 mmHg 66%
    18:00 +24°C° 0 mm 1 m/s 706 mmHg 74%
    19:00 +22°C° 0 mm 0 m/s 706 mmHg 77%
    20:00 +21°C° 0 mm 0 m/s 707 mmHg 79%
    21:00 +20°C° 0 mm 0 m/s 707 mmHg 82%
    22:00 +20°C° 0 mm 0 m/s 707 mmHg 84%
    23:00 +19°C° 0 mm 0 m/s 707 mmHg 85%

    26 Octobre, Vendredi

    Heure Température Précipitation Vent Pression Humidité
    00:00 +21°C° 0 mm 1 m/s 706 mmHg 86%
    01:00 +21°C° 0 mm 1 m/s 706 mmHg 87%
    02:00 +21°C° 0 mm 1 m/s 706 mmHg 88%
    03:00 +20°C° 0 mm 1 m/s 706 mmHg 89%
    04:00 +20°C° 0 mm 1 m/s 706 mmHg 90%
    05:00 +20°C° 0 mm 1 m/s 707 mmHg 91%
    06:00 +20°C° 0 mm 1 m/s 707 mmHg 92%
    07:00 +22°C° 0 mm 1 m/s 707 mmHg 84%
    08:00 +25°C° 0 mm 1 m/s 708 mmHg 75%
    09:00 +28°C° 0 mm 1 m/s 708 mmHg 67%
    10:00 +29°C° 0 mm 1 m/s 708 mmHg 62%
    11:00 +30°C° 0 mm 1 m/s 707 mmHg 57%
    12:00 +31°C° 0 mm 2 m/s 707 mmHg 53%
    13:00 +31°C° 0 mm 2 m/s 706 mmHg 53%
    14:00 +31°C° 0 mm 2 m/s 706 mmHg 53%
    15:00 +31°C° 0 mm 2 m/s 705 mmHg 53%
    16:00 +29°C° 0 mm 1 m/s 705 mmHg 61%
    17:00 +27°C° 0 mm 1 m/s 705 mmHg 70%
    18:00 +25°C° 0 mm 1 m/s 706 mmHg 78%
    19:00 +22°C° 0 mm 0 m/s 706 mmHg 81%
    20:00 +21°C° 0 mm 0 m/s 707 mmHg 83%
    21:00 +20°C° 0 mm 0 m/s 707 mmHg 86%
    22:00 +20°C° 0 mm 0 m/s 707 mmHg 87%
    23:00 +22°C° 0 mm 1 m/s 707 mmHg 88%
    Voir plus